Погода в Яснополянке

Россия / Калининградская область     55°11′01″N   21°24′26″E
темп.,
°C
ветер,
м/с
пор.,
м/с
влажн.,
%
обл.,
%
осадки,
мм/ч
давл.,
гПа
погр.,
м
22 мая, вс
вс2223:00+9з5996100 0.1 1005577
02:00+9сз3798100 0.3 1005427
05:00+9сз3799100 0.1 1006334
08:00+10с2597100 0.4 1007344
11:00+11ссв2490100 0.4 1009410
14:00+12в3586100 0.9 1010626
17:00+10в1189100 0.1 101158
20:00+10сз489089 0.2 1012235
23 мая, пн
пн2323:00+8ссз379280 0.0 1013153
02:00+9с238699 0.0 101351
05:00+6ссв228225 0.0 101427
08:00+12ссв23615 0.0 1014353
11:00+16сз22504 0.0 10141177
14:00+16зсз434912 0.0 10141167
17:00+15сз33504 0.0 1013468
20:00+11сз22721 0.0 101314
24 мая, вт
вт2423:00+9в22815 0.0 101313
02:00+7юв349059 0.0 101370
05:00+7вюв35842 0.0 101285
08:00+13ююв35615 0.0 1012374
11:00+17юв574583 0.0 10111349
14:00+19ююв574296 0.0 10111535
17:00+18юв4656100 0.0 10101320
20:00+15вюв397995 0.0 1010224
25 мая, ср
ср2523:00+14ююв3879100 0.0 1010192
02:00+12зюз1297100 0.4 101149
05:00+13з1198100 0.2 101135
08:00+15зсз348557 0.2 1012448
11:00+17сз3468100 0.0 1012681
14:00+18зсз445993 0.0 1012826
17:00+16сз4565100 0.0 1012455
20:00+12зсз2588100 0.2 1011136
26 мая, чт
чт2623:00+11ю2296100 1.4 101052
02:00+11з259692 1.5 1009126
05:00+10зюз2598100 0.0 1008130
08:00+12з5790100 0.9 1006428
11:00+11з2597100 4.1 1006336
14:00+11зсз5896100 5.0 1007569
17:00+12зсз6108457 0.4 1008905
20:00+11зсз510875 0.4 1010559